[[{"header":{"parameterUnit":"m.s-1","parameterCategory":1,"la1":30.2991,"la2":30.254,"lo1":-89.0895,"lo2":-89.0444,"dy":0.0017,"dx":0.0017,"nx":28,"ny":28,"refTime":"2024-02-01T09:00:00:Z","depth":0,"parameterNumber":2,"parameterNumberName":"U-component_of_WINDS"},"data":[0,0,0,0,0,0,0,0,0,0,0,0,0,0,0,0,0,0,0,0,0,0,0,0,0,0,0,0,0,0,0,0,0,0,0,0,0,0,0,0,0,0,0,0,0,0,0,0,0,0,0,0,0,0,0,0,0,0,-1.2371,-1.2372,0,-1.241,-1.2411,-1.2411,-1.2364,-1.2363,-1.2361,-1.2359,-1.2401,-1.2404,-1.2407,0,0,0,0,0,0,0,0,0,0,0,0,0,-1.2259,-1.2261,-1.2371,-1.2372,-1.2372,-1.241,-1.2411,-1.2411,-1.2365,-1.2363,-1.236,-1.2358,-1.2401,-1.2404,-1.2407,0,0,0,0,0,0,0,0,0,0,0,0,0,-1.2304,-1.2262,-1.2371,-1.2354,-1.2352,-1.241,-1.2411,-1.2411,-1.2365,-1.2362,-1.236,-1.2357,-1.2399,-1.2403,-1.2408,-1.2485,0,0,-1.242,-1.2422,0,0,0,0,0,0,0,0,-1.2301,-1.2308,-1.2356,-1.2355,-1.2354,-1.238,-1.2386,-1.2436,-1.2366,-1.236,-1.2359,-1.2356,-1.2396,-1.2401,-1.2414,-1.2487,-1.2489,-1.242,-1.2423,-1.2425,-1.2426,0,0,0,0,0,0,0,-1.2298,-1.2306,-1.2387,-1.2356,-1.2355,-1.2344,-1.2348,-1.2395,-1.2393,-1.2361,-1.2357,-1.2362,-1.2395,-1.241,-1.2414,-1.2489,-1.242,-1.2424,-1.2427,-1.2428,-1.2627,-1.263,0,0,0,0,0,0,-1.2297,-1.2304,-1.2385,-1.2388,-1.232,-1.2348,-1.2352,-1.2374,-1.2392,-1.2392,-1.2365,-1.236,-1.2404,-1.241,-1.2416,-1.2507,-1.2425,-1.2429,-1.2431,-1.2625,-1.2628,-1.2631,0,0,0,0,0,0,-1.2294,-1.2304,-1.2384,-1.2345,-1.2354,-1.2353,-1.2378,-1.2376,-1.239,-1.2395,-1.2394,-1.238,-1.2402,-1.241,-1.2468,-1.2508,-1.243,-1.2434,-1.2621,-1.2626,-1.263,-1.2692,0,0,0,0,0,0,-1.2291,-1.2304,-1.2333,-1.2346,-1.2356,-1.2435,-1.238,-1.2379,-1.2397,-1.2392,-1.2409,-1.2409,-1.2401,-1.2462,-1.2472,-1.2513,-1.2437,-1.2618,-1.2623,-1.2628,-1.2686,-1.2698,-1.2707,0,0,0,0,0,-1.2288,-1.235,-1.2335,-1.2345,-1.2393,-1.2438,-1.2444,-1.2432,-1.2401,-1.243,-1.2433,-1.2409,-1.2502,-1.2468,-1.2479,-1.2522,-1.2615,-1.2622,-1.2628,-1.2681,-1.2695,-1.2707,0,0,0,0,0,0,-1.2343,-1.2351,-1.2335,-1.2403,-1.242,-1.243,-1.2467,-1.2447,-1.2474,-1.2468,-1.2453,-1.2457,-1.2519,-1.2526,-1.2488,-1.2597,-1.2553,-1.2562,-1.2591,-1.2604,-1.2614,-1.2612,-1.2441,0,0,0,0,0,-1.2363,-1.2398,-1.2404,-1.2463,-1.2472,-1.2468,-1.2487,-1.2476,-1.2494,-1.2501,-1.2508,-1.2526,-1.2559,-1.2582,-1.2613,-1.2686,-1.269,-1.2721,-1.2731,-1.274,-1.2749,-1.2788,-1.2802,-1.2652,-1.2652,-1.2652,0,0,-1.2405,-1.2414,-1.2437,-1.2475,-1.2486,-1.2524,-1.2475,-1.2516,-1.2544,-1.2508,-1.2563,-1.2568,-1.2587,-1.2654,-1.2683,-1.2661,-1.279,-1.2748,-1.2755,-1.2759,-1.2796,-1.281,-1.2823,-1.2656,-1.2656,-1.2655,0,0,-1.2501,-1.2511,-1.2562,-1.2574,-1.2592,-1.2589,-1.2601,-1.2613,-1.2615,-1.267,-1.2643,-1.2676,-1.2734,-1.2748,-1.2763,-1.2863,-1.2842,-1.2874,-1.293,-1.2968,-1.298,-1.2991,-1.3027,-1.304,-1.2882,-1.2882,-1.2882,0,-1.2552,-1.2606,-1.259,-1.2634,-1.2651,-1.2618,-1.2669,-1.2682,-1.271,-1.2723,-1.2698,-1.2769,-1.278,-1.2849,-1.2873,-1.2886,-1.29,-1.2872,-1.298,-1.299,-1.2999,-1.3034,-1.3047,-1.2885,-1.2885,-1.2885,-1.2884,0,-1.2667,-1.2706,-1.2744,-1.2771,-1.2792,-1.2839,-1.2831,-1.2854,-1.2841,-1.284,-1.2896,-1.2907,-1.294,-1.2955,-1.2943,-1.3022,-1.3008,-1.2982,-1.2938,-1.3018,-1.305,-1.3062,-1.2891,-1.289,-1.2888,-1.2887,0,0,-1.2802,-1.2817,-1.2832,-1.2843,-1.286,-1.2889,-1.2934,-1.2965,-1.2986,-1.3005,-1.3043,-1.3092,-1.3067,-1.3084,-1.3073,-1.3107,-1.3186,-1.3076,-1.3076,-1.3097,-1.3274,-1.3294,-1.331,-1.3171,-1.3173,-1.3175,-1.3272,0,-1.2898,-1.2976,-1.2962,-1.3038,-1.3073,-1.3042,-1.3081,-1.3096,-1.3096,-1.3126,-1.3126,-1.3161,-1.3125,-1.3135,-1.3167,-1.3169,-1.3221,-1.3162,-1.3207,-1.3209,-1.3204,-1.3326,-1.3348,-1.3439,-1.3284,-1.3286,-1.3288,0,-1.3021,-1.3044,-1.3124,-1.3134,-1.3148,-1.3184,-1.321,-1.3239,-1.3255,-1.3253,-1.3271,-1.3254,-1.3299,-1.3253,-1.3316,-1.3276,-1.3293,-1.3297,-1.33,-1.3305,-1.3254,-1.3335,-1.3468,-1.3482,-1.3307,-1.3306,-1.3304,0,-1.3112,-1.3163,-1.3216,-1.3227,-1.324,-1.3266,-1.3273,-1.3286,-1.3305,-1.3328,-1.334,-1.3369,-1.3385,-1.3407,-1.3398,-1.3365,-1.3463,-1.3416,-1.3462,-1.3463,-1.3486,-1.3484,-1.3624,-1.3495,-1.3495,-1.3495,-1.3494,0,-1.3221,-1.3271,-1.3257,-1.329,-1.3345,-1.3329,-1.3384,-1.3387,-1.3398,-1.3432,-1.3406,-1.3438,-1.3424,-1.3455,-1.3448,-1.3501,-1.3508,-1.3508,-1.3506,-1.3511,-1.3511,-1.3523,-1.3517,-1.3498,-1.3497,-1.3497,-1.3496,0,-1.3333,-1.3325,-1.3381,-1.3389,-1.3392,-1.3432,-1.3438,-1.3469,-1.3467,-1.3509,-1.3518,-1.3515,-1.355,-1.3542,-1.3581,-1.3576,-1.3643,-1.3633,-1.3638,-1.3636,-1.3683,-1.3679,-1.3836,-1.3856,-1.3713,-1.3714,-1.3716,0,-1.3404,-1.3441,-1.3452,-1.3472,-1.348,-1.3513,-1.3532,-1.3517,-1.3538,-1.3558,-1.3587,-1.3619,-1.3645,-1.3702,-1.3704,-1.3733,-1.3723,-1.3776,-1.3728,-1.3732,-1.3725,-1.3723,-1.3727,-1.3787,-1.3788,-1.379,-1.3791,0,-1.3531,-1.3525,-1.3552,-1.3579,-1.3601,-1.3622,-1.3639,-1.3657,-1.3644,-1.3668,-1.3703,-1.3723,-1.3762,-1.3795,-1.3822,-1.3829,-1.3808,-1.3805,-1.3818,-1.3824,-1.3826,-1.3826,-1.3665,-1.3802,-1.3801,-1.38,-1.38,-1.3799,-1.3625,-1.3656,-1.3668,-1.37,-1.3711,-1.3728,-1.3758,-1.3758,-1.3787,-1.3817,-1.3806,-1.3846,-1.386,-1.3894,-1.3904,-1.3936,-1.3916,-1.3934,-1.3938,-1.3943,-1.3949,-1.382,-1.394,-1.394,-1.394,-1.3939,-1.3939,0,-1.3751,-1.3757,-1.3786,-1.3811,-1.3836,-1.3812,-1.383,-1.3852,-1.3888,-1.3902,-1.3927,-1.3967,-1.3998,-1.4001,-1.4031,-1.4055,-1.4046,-1.4064,-1.4062,-1.4064,-1.3965,-1.3952,-1.407,-1.407,-1.407,-1.407,-1.407,-1.407,-1.382,-1.3872,-1.3867,-1.3924,-1.393,-1.3968,-1.3981,-1.3996,-1.4007,-1.4053,-1.4078,-1.4079,-1.4089,-1.4119,-1.4147,-1.4147,-1.4159,-1.418,-1.4177,-1.4084,-1.4071,-1.4059,-1.4046,-1.4183,-1.4183,-1.4273,-1.4274,-1.4275]},{"header":{"parameterUnit":"m.s-1","parameterCategory":1,"la1":30.2991,"la2":30.254,"lo1":-89.0895,"lo2":-89.0444,"dy":0.0017,"dx":0.0017,"nx":28,"ny":28,"refTime":"2024-02-01T09:00:00:Z","depth":0,"parameterNumber":3,"parameterNumberName":"V-component_of_WINDS"},"data":[0,0,0,0,0,0,0,0,0,0,0,0,0,0,0,0,0,0,0,0,0,0,0,0,0,0,0,0,0,0,0,0,0,0,0,0,0,0,0,0,0,0,0,0,0,0,0,0,0,0,0,0,0,0,0,0,0,0,-3.0134,-3.0134,0,-3.0171,-3.0171,-3.0172,-3.0136,-3.0134,-3.0133,-3.0131,-3.0167,-3.0169,-3.0171,0,0,0,0,0,0,0,0,0,0,0,0,0,-3.0029,-3.0031,-3.0134,-3.0134,-3.0135,-3.0171,-3.0171,-3.0172,-3.0136,-3.0134,-3.0132,-3.0131,-3.0166,-3.0169,-3.0171,0,0,0,0,0,0,0,0,0,0,0,0,0,-3.0071,-3.0031,-3.0134,-3.0121,-3.012,-3.0171,-3.0171,-3.0172,-3.0136,-3.0134,-3.0132,-3.013,-3.0165,-3.0168,-3.0172,-3.0235,0,0,-3.0182,-3.0184,0,0,0,0,0,0,0,0,-3.0068,-3.0075,-3.0123,-3.0122,-3.0121,-3.0146,-3.0147,-3.0193,-3.0137,-3.013,-3.0131,-3.0129,-3.0162,-3.0165,-3.0177,-3.0237,-3.0238,-3.0182,-3.0184,-3.0186,-3.0187,0,0,0,0,0,0,0,-3.0066,-3.0073,-3.0148,-3.0123,-3.0123,-3.0113,-3.0116,-3.0156,-3.0157,-3.0131,-3.0128,-3.0133,-3.0161,-3.0173,-3.0177,-3.0239,-3.0182,-3.0185,-3.0187,-3.0189,-3.0351,-3.0354,0,0,0,0,0,0,-3.0064,-3.0071,-3.0147,-3.0149,-3.0089,-3.0116,-3.012,-3.014,-3.0157,-3.0157,-3.0135,-3.0131,-3.0169,-3.0173,-3.0178,-3.0253,-3.0186,-3.0189,-3.0191,-3.0349,-3.0352,-3.0354,0,0,0,0,0,0,-3.0062,-3.0072,-3.0146,-3.0109,-3.0118,-3.012,-3.0143,-3.0142,-3.0155,-3.016,-3.016,-3.0148,-3.0167,-3.0173,-3.0221,-3.0253,-3.0191,-3.0194,-3.0346,-3.035,-3.0353,-3.0403,0,0,0,0,0,0,-3.0059,-3.0071,-3.0096,-3.011,-3.012,-3.0189,-3.0145,-3.0145,-3.0161,-3.0157,-3.0172,-3.0172,-3.0166,-3.0216,-3.0225,-3.0257,-3.0196,-3.0343,-3.0348,-3.0352,-3.0398,-3.0407,-3.0415,0,0,0,0,0,-3.0056,-3.0108,-3.0098,-3.0107,-3.0152,-3.0191,-3.0197,-3.0189,-3.0164,-3.0188,-3.0191,-3.0172,-3.0249,-3.0221,-3.023,-3.0264,-3.0341,-3.0347,-3.0352,-3.0394,-3.0405,-3.0415,0,0,0,0,0,0,-3.0097,-3.011,-3.0098,-3.0157,-3.0173,-3.0185,-3.0216,-3.0201,-3.0224,-3.0219,-3.0208,-3.0211,-3.0262,-3.0268,-3.0237,-3.0326,-3.0291,-3.0298,-3.032,-3.0331,-3.0339,-3.0336,-3.0199,0,0,0,0,0,-3.0113,-3.0145,-3.0154,-3.0205,-3.0214,-3.0214,-3.023,-3.0223,-3.0239,-3.0246,-3.0252,-3.0268,-3.0295,-3.0313,-3.0339,-3.0399,-3.0401,-3.0426,-3.0435,-3.0442,-3.0448,-3.0479,-3.049,-3.0371,-3.0371,-3.0371,0,0,-3.0147,-3.0158,-3.0178,-3.0214,-3.0226,-3.0258,-3.022,-3.0255,-3.0279,-3.0251,-3.0296,-3.0301,-3.0318,-3.0372,-3.0396,-3.0378,-3.0481,-3.0448,-3.0454,-3.0456,-3.0485,-3.0496,-3.0506,-3.0375,-3.0374,-3.0374,0,0,-3.0224,-3.0236,-3.0279,-3.0292,-3.031,-3.0309,-3.032,-3.0333,-3.0336,-3.0381,-3.0361,-3.0388,-3.0436,-3.0448,-3.046,-3.0541,-3.0523,-3.0549,-3.0594,-3.0624,-3.0633,-3.0641,-3.0669,-3.0679,-3.0555,-3.0556,-3.0556,0,-3.0263,-3.0311,-3.0303,-3.034,-3.0356,-3.0332,-3.0375,-3.0387,-3.0413,-3.0424,-3.0404,-3.0463,-3.0472,-3.0528,-3.0548,-3.0559,-3.0569,-3.0547,-3.0633,-3.0641,-3.0648,-3.0674,-3.0685,-3.0559,-3.0558,-3.0558,-3.0558,0,-3.0357,-3.0391,-3.0424,-3.045,-3.0469,-3.0509,-3.0505,-3.0525,-3.0516,-3.0517,-3.0563,-3.0573,-3.06,-3.0613,-3.0604,-3.0667,-3.0655,-3.0635,-3.0599,-3.0663,-3.0687,-3.0697,-3.0563,-3.0562,-3.0561,-3.056,0,0,-3.0462,-3.0482,-3.0494,-3.0505,-3.0523,-3.0548,-3.0587,-3.0613,-3.063,-3.0649,-3.0679,-3.072,-3.07,-3.0715,-3.0707,-3.0733,-3.0795,-3.0709,-3.0709,-3.0724,-3.0863,-3.0879,-3.089,-3.0784,-3.0786,-3.0787,-3.0862,0,-3.0539,-3.0606,-3.0599,-3.0662,-3.0693,-3.067,-3.0703,-3.0717,-3.0719,-3.0744,-3.0745,-3.0774,-3.0747,-3.0755,-3.078,-3.0782,-3.0823,-3.0777,-3.0811,-3.0812,-3.0807,-3.0903,-3.092,-3.099,-3.0871,-3.0873,-3.0874,0,-3.0637,-3.0659,-3.0726,-3.0739,-3.0751,-3.0781,-3.0804,-3.0829,-3.0844,-3.0843,-3.0858,-3.0846,-3.0882,-3.0847,-3.0896,-3.0865,-3.0879,-3.0882,-3.0884,-3.0887,-3.0847,-3.0907,-3.1012,-3.1022,-3.0889,-3.0888,-3.0887,0,-3.0706,-3.0752,-3.0797,-3.0807,-3.0823,-3.0845,-3.0852,-3.0865,-3.0881,-3.0901,-3.0911,-3.0935,-3.0948,-3.0966,-3.096,-3.0935,-3.1011,-3.0975,-3.101,-3.101,-3.1026,-3.1025,-3.1134,-3.1037,-3.1036,-3.1036,-3.1036,0,-3.0792,-3.0833,-3.0828,-3.0856,-3.0901,-3.0892,-3.0937,-3.0941,-3.0953,-3.098,-3.0962,-3.0988,-3.0978,-3.1003,-3.0998,-3.104,-3.1046,-3.1045,-3.1043,-3.1046,-3.1046,-3.1054,-3.1049,-3.1039,-3.1038,-3.1038,-3.1037,0,-3.0875,-3.0874,-3.0922,-3.0933,-3.0937,-3.0969,-3.0978,-3.1004,-3.1004,-3.1038,-3.1046,-3.1046,-3.1074,-3.107,-3.1101,-3.1097,-3.1149,-3.1141,-3.1144,-3.1142,-3.1177,-3.1173,-3.1294,-3.1309,-3.1203,-3.1204,-3.1205,0,-3.093,-3.0961,-3.0976,-3.0993,-3.1002,-3.1031,-3.1047,-3.1039,-3.1056,-3.1075,-3.1098,-3.1125,-3.1146,-3.1192,-3.1194,-3.1217,-3.121,-3.125,-3.1213,-3.1215,-3.1209,-3.1207,-3.1209,-3.1257,-3.1259,-3.126,-3.126,0,-3.1027,-3.1024,-3.1049,-3.1074,-3.1094,-3.1112,-3.1129,-3.1144,-3.1137,-3.1158,-3.1187,-3.1203,-3.1235,-3.1261,-3.1283,-3.1289,-3.1273,-3.1272,-3.1281,-3.1284,-3.1284,-3.1284,-3.1163,-3.1269,-3.1268,-3.1268,-3.1267,-3.1267,-3.1097,-3.1123,-3.1137,-3.1165,-3.1177,-3.1193,-3.1217,-3.122,-3.1244,-3.127,-3.1264,-3.1296,-3.1309,-3.1336,-3.1345,-3.137,-3.1354,-3.1368,-3.1371,-3.1375,-3.1378,-3.1281,-3.1374,-3.1373,-3.1373,-3.1373,-3.1373,0,-3.1192,-3.12,-3.1226,-3.125,-3.1271,-3.1255,-3.1272,-3.1291,-3.132,-3.1334,-3.1355,-3.1387,-3.1412,-3.1416,-3.144,-3.1459,-3.1452,-3.1465,-3.1463,-3.1465,-3.1391,-3.138,-3.147,-3.147,-3.147,-3.147,-3.147,-3.147,-3.1244,-3.1287,-3.1286,-3.1334,-3.1342,-3.1374,-3.1385,-3.1399,-3.141,-3.1447,-3.1468,-3.1471,-3.148,-3.1504,-3.1526,-3.1526,-3.1535,-3.1551,-3.1549,-3.148,-3.147,-3.1461,-3.145,-3.1553,-3.1554,-3.162,-3.162,-3.1621]}]]